Regional Weather Roundup
Issued by NWS

Home | Current Version | Previous Version | Graphics & Text | Print | Product List | Glossary On
Versions: 1 2 3 4 5 6 7 8 9 10 11 12 13 14 15 16 17 18 19 20 21 22 23 24 25 26 27 28 29 30 31 32 33 34 35 36 37 38 39 40 41 42 43 44 45 46 47 48 49 50
667
ASUS43 KMKX 271921
RWRWI

WISCONSIN REGIONAL WEATHER ROUNDUP
NATIONAL WEATHER SERVICE MILWAUKEE/SULLIVAN WI
200 PM CDT WED JUL 27 2016

NOTE: "FAIR" INDICATES FEW OR NO CLOUDS BELOW 12,000 FEET WITH NO
SIGNIFICANT WEATHER AND/OR OBSTRUCTIONS TO VISIBILITY.

WIZ001-002-006>008-014>016-023>028-272000-
NORTHWEST WISCONSIN

CITY           SKY/WX    TMP DP  RH WIND       PRES   REMARKS
SUPERIOR ARPT  DRIZZLE   63  60  92 NE13G18   30.03F
ASHLAND        LGT RAIN  65  62  90 N13G21    30.02F
HAYWARD        CLOUDY    71  66  84 NE3       30.00F
SIREN          RAIN      73  70  88 NE3       29.97
CUMBERLAND     LGT RAIN  72  66  83 CALM      29.98S
RICE LAKE      CLOUDY    74  66  75 E6        29.98F
CHETEK         CLOUDY    76  69  78 MISG      29.97F
LADYSMITH      CLOUDY    74  65  73 CALM      30.01F
EAU CLAIRE     CLOUDY    81  70  69 SE7       29.94F HX  84
MENOMONIE      CLOUDY    82  71  68 SE8       29.96F HX  86
NEW RICHMOND   CLOUDY    77  67  71 S8        29.94F
OSCEOLA        LGT RAIN  78  68  72 S8        29.94F HX  80
$$

WIZ003>005-009-010-017-018-272000-
NORTH CENTRAL WISCONSIN

CITY           SKY/WX    TMP DP  RH WIND       PRES   REMARKS
MANITOWISH WTR LGT RAIN  70  69  96 CALM      30.02F
ARBOR VITAE    DRIZZLE   72  67  85 CALM      30.03S
WOODRUFF       DRIZZLE   72  67  85 CALM      30.03S
RHINELANDER    CLOUDY    72  64  76 CALM      30.03F
EAGLE RIVER    PTSUNNY   70  62  75 CALM      30.03S
LAND O LAKES   CLOUDY    70  66  88 CALM      30.04S
PHILLIPS       CLOUDY    70  65  84 CALM      30.02S
TOMAHAWK       CLOUDY    73  66  79 CALM      30.02F
MEDFORD        CLOUDY    73  69  86 CALM      30.01F
MERRILL        PTSUNNY   73  68  83 CALM      30.02S
$$

WIZ029-030-035-036-043>047-272000-
CENTRAL WISCONSIN

CITY           SKY/WX    TMP DP  RH WIND       PRES   REMARKS
WAUSAU         CLOUDY    77  68  73 CALM      29.99F
MOSINEE        MOSUNNY   77  70  78 SE6       30.01F
MARSHFIELD     PTSUNNY   81  68  64 S6        30.00S HX  84
STEVENS POINT  CLOUDY    76  65  68 SE6       30.01S
WAUPACA        CLOUDY    80  67  64 CALM      30.00F HX  82
WAUTOMA        CLOUDY    72  67  84 NE3       30.01F
WISC RAPIDS    CLOUDY    82  64  54 SE6       30.00F HX  83
CAMP DOUGLAS   PTSUNNY   81  72  74 E10       29.98F HX  84
$$

WIZ011>013-019>022-031-037>040-048>050-272000-
NORTHEAST WISCONSIN

CITY           SKY/WX    TMP DP  RH WIND       PRES   REMARKS
ANTIGO         CLOUDY    71  65  83 CALM      30.03S
SHAWANO        CLOUDY    78  66  66 CALM      29.99S HX  80
OCONTO         MOSUNNY   75  70  84 N3        29.97F
STURGEON BAY   CLOUDY    75  66  73 MISG      29.98
GREEN BAY      MOSUNNY   77  65  66 CALM      29.98F
MANITOWOC      CLOUDY    81  63  54 MISG      29.99F HX  82
APPLETON       PTSUNNY   73  63  68 VRB6      29.98F
CLINTONVILLE   PTSUNNY   75  64  69 S5        29.99F
OSHKOSH        LGT RAIN  75  67  76 CALM      29.99F
$$

WIZ032>034-041-042-053>061-272000-
SOUTHWEST WISCONSIN

CITY           SKY/WX    TMP DP  RH WIND       PRES   REMARKS
LA CROSSE      CLOUDY    83  67  58 SW9       29.97S HX  85
SPARTA         PTSUNNY   82  68  62 S5        29.98F HX  85
VIROQUA        CLOUDY    82  67  60 S7        30.01F HX  84
BOSCOBEL       MOSUNNY   88  67  49 CALM      29.98F HX  91
PRAIRIE DU CHI CLOUDY    83  63  49 S7        29.98F HX  84
PLATTEVILLE    MOSUNNY   82  67  60 S3        30.01F HX  84
$$

WIZ056-057-062-063-064-067-068-272000-
SOUTH CENTRAL WISCONSIN

CITY           SKY/WX    TMP DP  RH WIND       PRES   REMARKS
REEDSBURG      MOSUNNY   83  70  66 CALM      29.98F HX  87
BARABOO/DELLS  PTSUNNY   84  67  56 S6        29.99S HX  87
LONE ROCK      CLOUDY    84  68  58 S6        29.98F HX  87
MINERAL POINT  MOSUNNY   82  66  57 S7        30.01F HX  85
MADISON        PTSUNNY   85  65  51 VRB3      29.98F HX  86
MIDDLETON      PTSUNNY   85  66  52 SW8       29.99F HX  86
WATERTOWN      MOSUNNY   85  69  59 SW5       29.97F HX  88
MONROE         MOSUNNY   82  63  51 SW9       30.00S HX  83
JANESVILLE     MOSUNNY   86  64  48 SW7       29.97  HX  87
$$

WIZ051-052-058>065-066-070>072-272000-
SOUTHEAST WISCONSIN

CITY           SKY/WX    TMP DP  RH WIND       PRES   REMARKS
MILWAUKEE      PTSUNNY   88  66  48 S9        29.97F HX  90
WAUKESHA       MOSUNNY   84  64  51 SW7       30.00F HX  86
MILWAUKEE/TIMM MOSUNNY   86  61  42 W6        29.98F HX  86
RACINE         PTSUNNY   83  65  54 SE10      29.99F HX  85
BURLINGTON     MOSUNNY   87  63  44 S3        29.97F HX  87
KENOSHA        MOSUNNY   88  65  46 VRB7      29.98F HX  90
FOND DU LAC    LGT RAIN  75  67  76 N9        29.99F
SHEBOYGAN      RAIN      69  65  86 S3        30.01F
WEST BEND      CLOUDY    73  63  68 E13       29.99S
JUNEAU         CLOUDY    84  69  60 S5        29.98F HX  87
$$

LSZ147-162-272000-
LAKE SUPERIOR

STATION/POSITION TIME  TEMP    WIND        PRES    WAVE
                       AIR SEA DIR/SP/G            HT/PER
                 (UTC) (F)     (DEG/KT/KT) (MB)    (FT/S)
W MID LAKE BUOY  1850   62 60   70/ 16/ 19 1016.2R   2/ 4
DEVILS ISLAND    1900   62      50/ 15/ 17 1017.5R
PORT WING        1900   65      30/ 24     1016.3F
SAXON HARBOR     1800   68      40/  9/ 10 1015.6
$$

LMZ867-665-643>646-272000-
LAKE MICHIGAN

STATION/POSITION TIME  TEMP    WIND        PRES    WAVE
                       AIR SEA DIR/SP/G            HT/PER
                 (UTC) (F)     (DEG/KT/KT) (MB)    (FT/S)
CHAMBERS ISLAND  1800   73     270/  3/  6 1015.2F
S GREEN BAY BUOY 1800   72 75  270/  6/  6   N/A
N MID LAKE BUOY  1850   71 70   CALM  /  2 1014.1F   1
NORTHPORT PIER   1800   73     270/  3/  4 1015.2F
SISTER BAY       1806   76     360/  5/  5   N/A
ALGOMA LAKESHORE 1813          330/ 14/ 17   N/A
KEWAUNEE LAKESHO 1800   81     350/ 11/ 16 1015.2F
SHEBOYGAN LAKESH 1900   71     290/  7/  8 1016.2R
PORT WASHINGTON  1840   75      30/  7/ 17 1016.3S
ATWATER BUOY     1900   69 62  150/ 10/ 12 1016.3F
MILWAUKEE LAKESH 1810   76     160/ 15/ 16   N/A
S MID LAKE BUOY  1850   77 76  190/  6/  8 1014.9F   0
KENOSHA   LAKESH 1900   78     130/ 10/ 10 1014.6F
$$

TC  - TEMPERATURE IN CELSIUS
VSB - VISIBILITY IN STATUTE MILES
WCI - WIND CHILL INDEX
HX  - HEAT INDEX





USA.gov is the U.S. government's official web portal to all federal, state and local government web resources and services.